Location: Beaurecueil
(43.5122°N, 5.5450°E)
Time: 16:12:49
(UTC+00:00)

KORONAS-FOTON - Pass Details

Date: 18 September 2020
Orbit: 506 x 531 km, 82.4° (Epoch: 20 October)

Event Time Altitude Azimuth Distance (km) Brightness Sun altitude
Rises 19:21:15 0° 358° (N) 2,685 7.7 -18.4°
Reaches altitude 10° 19:23:30 10° 6° (N) 1,791 6.7 -18.8°
Enters shadow 19:26:45 38° 58° (ENE) 827 4.5 -19.4°
